contact:dominique.lefevre@mio.osupytheas.fr, maurice.libes@osupytheas.fr, didier.mallarino@osupytheas.fr
Project:EMSO http://www.emso-fr.org/EMSO-France
Depth: 2436.0 m
Title:EMSO Ligure Ouest : Data MII capteur AQUADOPP
Date,Latitude,Longitude,X_East,Y_North,Z_Up,Amplitude_X,Amplitude_Y,Amplitude_Z,Batterie,SoundSpeed,Heading,Pitch,Roll,Pressure,TIS,Speed,Direction
, degrees North, degrees East, m.s-1, m.s-1,m.s-1, 1, 1, 1, Volt, m.s-1, degree, degree, degree, dbar, degree_C, m.s-1, degree
2020-05-20T00:04:03,42.805,6.029,-0.013,-0.012,-0.048,106.0,106.0,103.0,13.4,1505.3,326.5,-0.7,1.8,2470.263,13.31,0.017,227.3
2020-05-20T00:07:03,42.805,6.029,-0.001,-0.003,-0.041,106.0,107.0,102.0,13.4,1505.3,324.4,-0.7,1.8,2470.216,13.32,0.003,198.4
2020-05-20T00:10:03,42.805,6.029,0.02,-0.016,-0.036,104.0,108.0,101.0,13.4,1505.3,324.1,-0.7,1.8,2470.282,13.32,0.025,128.7
2020-05-20T00:13:03,42.805,6.029,-0.027,-0.004,-0.062,104.0,107.0,102.0,13.4,1505.3,324.6,-0.7,1.8,2470.233,13.33,0.027,261.6
2020-05-20T00:16:03,42.805,6.029,-0.02,-0.014,-0.056,105.0,107.0,101.0,13.4,1505.3,323.3,-0.7,1.8,2470.225,13.33,0.024,235.0
2020-05-20T00:19:03,42.805,6.029,-0.02,-0.019,-0.03,104.0,107.0,102.0,13.3,1505.3,324.4,-0.7,1.9,2470.207,13.33,0.027,226.5
2020-05-20T00:22:03,42.805,6.029,0.012,-0.005,-0.056,104.0,107.0,103.0,13.4,1505.3,323.8,-0.7,1.8,2470.24,13.33,0.013,112.6
2020-05-20T00:25:03,42.805,6.029,-0.004,-0.004,-0.053,105.0,107.0,101.0,13.4,1505.3,325.1,-0.7,1.8,2470.194,13.33,0.005,225.0
2020-05-20T00:28:03,42.805,6.029,-0.016,-0.03,-0.063,104.0,108.0,101.0,13.4,1505.3,328.2,-0.7,1.8,2470.222,13.33,0.034,208.1
2020-05-20T00:31:03,42.805,6.029,0.01,-0.008,-0.002,105.0,106.0,103.0,13.4,1505.3,323.0,-0.7,1.9,2470.232,13.33,0.012,128.7
2020-05-20T00:34:03,42.805,6.029,0.023,0.004,-0.01,103.0,106.0,103.0,13.3,1505.3,326.4,-0.7,1.8,2470.216,13.33,0.023,80.1
2020-05-20T00:37:03,42.805,6.029,-0.046,-0.028,-0.068,105.0,107.0,100.0,13.4,1505.3,324.5,-0.7,1.8,2470.247,13.33,0.053,238.7
2020-05-20T00:40:03,42.805,6.029,0.03,-0.008,-0.011,105.0,106.0,101.0,13.4,1505.3,328.1,-0.7,1.9,2470.209,13.33,0.031,104.9
2020-05-20T00:43:03,42.805,6.029,0.009,0.006,-0.003,104.0,108.0,101.0,13.3,1505.3,324.8,-0.7,1.8,2470.199,13.33,0.01,56.3
2020-05-20T00:46:03,42.805,6.029,0.015,0.007,-0.008,104.0,107.0,101.0,13.3,1505.3,325.5,-0.7,1.9,2470.209,13.33,0.016,65.0
2020-05-20T00:49:03,42.805,6.029,0.015,0.017,0.026,105.0,105.0,103.0,13.4,1505.3,323.7,-0.7,1.9,2470.191,13.33,0.022,41.4
2020-05-20T00:52:03,42.805,6.029,-0.001,0.021,-0.03,106.0,106.0,102.0,13.4,1505.4,325.6,-0.7,1.9,2470.189,13.34,0.021,357.3
2020-05-20T00:55:03,42.805,6.029,-0.03,-0.007,-0.062,103.0,106.0,101.0,13.4,1505.3,328.3,-0.7,1.8,2470.185,13.33,0.03,256.9
2020-05-20T00:58:03,42.805,6.029,-0.004,0.0,-0.039,105.0,108.0,102.0,13.3,1505.3,324.2,-0.7,1.8,2470.197,13.33,0.004,270.0
2020-05-20T01:08:51,42.805,6.029,-0.004,-0.009,-0.054,103.0,108.0,102.0,13.3,1505.3,325.0,-0.8,1.8,2470.285,13.32,0.009,204.0
2020-05-20T01:14:33,42.805,6.029,-0.008,-0.007,-0.049,106.0,108.0,102.0,13.4,1505.2,325.8,-0.7,1.9,2470.28,13.3,0.01,228.8
2020-05-20T01:19:33,42.805,6.029,-0.018,-0.002,-0.07,104.0,107.0,100.0,13.3,1505.3,323.8,-0.7,1.9,2470.262,13.31,0.018,263.7
2020-05-20T01:25:35,42.805,6.029,-0.032,0.0,-0.064,104.0,106.0,102.0,13.3,1505.2,322.9,-0.8,1.8,2470.305,13.3,0.032,270.0
2020-05-20T01:28:03,42.805,6.029,-0.026,0.001,-0.062,104.0,107.0,103.0,13.3,1505.3,323.1,-0.7,1.8,2470.275,13.31,0.026,272.2
2020-05-20T01:34:03,42.805,6.029,-0.035,-0.017,-0.059,104.0,107.0,102.0,13.4,1505.2,323.4,-0.7,1.8,2470.315,13.3,0.038,244.1
2020-05-20T01:58:03,42.805,6.029,0.008,0.0,-0.018,103.0,107.0,101.0,13.4,1505.2,323.1,-0.8,1.8,2470.486,13.28,0.008,90.0
2020-05-20T02:04:03,42.805,6.029,0.034,0.006,0.0,104.0,106.0,101.0,13.4,1505.2,327.2,-0.8,1.8,2470.476,13.29,0.034,80.0
2020-05-20T02:07:03,42.805,6.029,0.025,0.022,-0.018,104.0,106.0,101.0,13.4,1505.2,328.4,-0.7,1.9,2470.401,13.3,0.033,48.7
2020-05-20T02:10:03,42.805,6.029,0.001,0.013,-0.001,103.0,107.0,102.0,13.4,1505.3,328.3,-0.7,1.8,2470.367,13.31,0.013,4.4
2020-05-20T02:13:03,42.805,6.029,0.037,0.015,0.008,105.0,105.0,101.0,13.3,1505.3,325.5,-0.7,1.8,2470.358,13.32,0.039,67.9
2020-05-20T02:16:03,42.805,6.029,0.022,-0.01,-0.032,105.0,105.0,102.0,13.4,1505.3,322.9,-0.7,1.9,2470.328,13.33,0.024,114.4
2020-05-20T02:19:03,42.805,6.029,0.027,0.01,0.017,104.0,106.0,103.0,13.3,1505.3,325.7,-0.7,1.8,2470.302,13.33,0.028,69.7
2020-05-20T02:22:03,42.805,6.029,0.01,0.02,-0.037,103.0,107.0,101.0,13.4,1505.3,327.8,-0.7,1.9,2470.351,13.33,0.022,26.6
2020-05-20T02:25:03,42.805,6.029,0.037,0.005,0.002,103.0,107.0,102.0,13.4,1505.3,325.7,-0.7,1.8,2470.346,13.33,0.037,82.3
2020-05-20T02:28:03,42.805,6.029,0.047,0.02,0.039,104.0,107.0,101.0,13.3,1505.3,324.9,-0.7,1.8,2470.34,13.33,0.051,67.0
2020-05-20T02:31:03,42.805,6.029,0.038,-0.004,-0.034,104.0,105.0,103.0,13.4,1505.3,324.8,-0.7,1.8,2470.309,13.33,0.038,96.0
2020-05-20T02:34:03,42.805,6.029,0.017,0.016,0.002,104.0,106.0,102.0,13.4,1505.3,325.4,-0.7,1.8,2470.224,13.33,0.023,46.7
2020-05-20T02:37:03,42.805,6.029,0.047,0.009,0.018,105.0,107.0,103.0,13.4,1505.3,323.8,-0.7,1.8,2470.327,13.33,0.047,79.2
2020-05-20T02:40:03,42.805,6.029,0.021,0.019,-0.003,105.0,107.0,102.0,13.4,1505.4,325.0,-0.7,1.9,2470.274,13.34,0.028,47.9
2020-05-20T02:43:03,42.805,6.029,0.025,0.006,-0.006,104.0,107.0,101.0,13.4,1505.4,322.8,-0.7,1.8,2470.313,13.34,0.025,76.5
2020-05-20T02:46:03,42.805,6.029,0.002,0.007,-0.049,103.0,106.0,101.0,13.4,1505.4,324.4,-0.7,1.8,2470.272,13.34,0.007,15.9
2020-05-20T02:49:03,42.805,6.029,0.009,-0.001,-0.036,104.0,107.0,100.0,13.4,1505.4,324.4,-0.8,1.8,2470.322,13.34,0.009,96.3
2020-05-20T02:52:03,42.805,6.029,0.046,0.009,0.03,103.0,106.0,102.0,13.3,1505.4,326.0,-0.7,1.9,2470.254,13.34,0.046,78.9
2020-05-20T02:55:03,42.805,6.029,0.039,-0.005,-0.003,104.0,106.0,101.0,13.4,1505.4,328.0,-0.8,1.8,2470.269,13.34,0.039,97.3
2020-05-20T02:58:03,42.805,6.029,0.014,0.004,-0.011,104.0,106.0,102.0,13.3,1505.4,326.5,-0.7,1.8,2470.279,13.34,0.014,74.1
2020-05-20T03:04:03,42.805,6.029,0.032,0.014,-0.007,104.0,105.0,101.0,13.4,1505.3,325.1,-0.7,1.8,2470.299,13.32,0.034,66.4
2020-05-20T03:07:03,42.805,6.029,0.004,0.003,-0.013,103.0,106.0,101.0,13.4,1505.3,326.9,-0.7,1.8,2470.31,13.33,0.005,53.1
2020-05-20T03:10:03,42.805,6.029,0.037,-0.007,-0.002,103.0,108.0,103.0,13.3,1505.3,324.2,-0.7,1.9,2470.307,13.33,0.037,100.7
2020-05-20T03:13:03,42.805,6.029,0.034,-0.001,-0.035,103.0,107.0,102.0,13.3,1505.3,325.3,-0.7,1.9,2470.259,13.33,0.034,91.7
2020-05-20T03:16:03,42.805,6.029,0.043,0.016,0.008,103.0,106.0,101.0,13.3,1505.3,323.0,-0.7,1.8,2470.311,13.33,0.045,69.6
2020-05-20T03:19:03,42.805,6.029,0.003,0.008,-0.02,105.0,105.0,101.0,13.4,1505.3,325.1,-0.7,1.8,2470.285,13.33,0.008,20.6
2020-05-20T03:22:03,42.805,6.029,0.031,0.008,0.013,105.0,106.0,102.0,13.3,1505.3,323.9,-0.7,1.8,2470.237,13.33,0.032,75.5
2020-05-20T03:25:03,42.805,6.029,0.033,0.014,-0.012,104.0,107.0,101.0,13.4,1505.3,326.6,-0.7,1.9,2470.243,13.33,0.035,67.0
2020-05-20T03:28:03,42.805,6.029,0.004,0.018,0.024,105.0,106.0,102.0,13.3,1505.3,325.1,-0.7,1.8,2470.295,13.33,0.018,12.5
2020-05-20T03:31:03,42.805,6.029,-0.005,0.012,-0.06,104.0,108.0,101.0,13.4,1505.3,324.6,-0.7,1.8,2470.275,13.33,0.013,337.4
2020-05-20T03:34:03,42.805,6.029,0.008,0.0,-0.026,103.0,106.0,103.0,13.4,1505.3,326.2,-0.7,1.8,2470.327,13.33,0.008,90.0
2020-05-20T03:37:03,42.805,6.029,0.025,0.034,0.0,104.0,107.0,103.0,13.4,1505.3,324.7,-0.7,1.8,2470.274,13.33,0.042,36.3
2020-05-20T03:40:03,42.805,6.029,-0.005,-0.001,-0.044,105.0,108.0,101.0,13.3,1505.3,327.6,-0.7,1.8,2470.327,13.33,0.005,258.7
2020-05-20T03:43:03,42.805,6.029,0.006,-0.002,-0.019,103.0,106.0,102.0,13.4,1505.3,327.0,-0.7,1.8,2470.284,13.33,0.006,108.4
2020-05-20T03:46:03,42.805,6.029,0.033,0.015,0.028,103.0,107.0,103.0,13.4,1505.3,324.7,-0.7,1.8,2470.321,13.33,0.036,65.6
2020-05-20T03:49:03,42.805,6.029,-0.018,0.011,-0.041,104.0,108.0,101.0,13.4,1505.3,325.9,-0.7,1.8,2470.327,13.33,0.021,301.4
2020-05-20T03:52:03,42.805,6.029,0.023,0.009,-0.033,103.0,106.0,102.0,13.4,1505.3,325.1,-0.7,1.8,2470.291,13.33,0.024,68.6
2020-05-20T03:55:03,42.805,6.029,0.016,0.015,-0.03,104.0,107.0,100.0,13.4,1505.3,328.0,-0.7,1.8,2470.289,13.33,0.021,46.9
2020-05-20T03:58:03,42.805,6.029,-0.03,-0.006,-0.04,104.0,107.0,102.0,13.4,1505.3,326.2,-0.7,1.8,2470.27,13.33,0.03,258.7
2020-05-20T04:04:03,42.805,6.029,0.004,0.007,-0.044,102.0,108.0,101.0,13.4,1505.3,323.0,-0.8,1.8,2470.367,13.31,0.008,29.7
2020-05-20T04:07:03,42.805,6.029,-0.04,0.004,-0.047,103.0,105.0,103.0,13.3,1505.3,323.3,-0.7,1.8,2470.314,13.32,0.04,275.7
2020-05-20T04:13:03,42.805,6.029,0.004,-0.013,-0.039,102.0,108.0,101.0,13.3,1505.3,326.9,-0.7,1.8,2470.402,13.31,0.013,162.9
2020-05-20T04:16:03,42.805,6.029,-0.04,0.001,-0.056,105.0,107.0,100.0,13.4,1505.3,325.4,-0.7,1.8,2470.334,13.32,0.04,271.4
2020-05-20T04:19:03,42.805,6.029,-0.012,-0.017,-0.064,104.0,107.0,100.0,13.4,1505.3,326.0,-0.7,1.8,2470.349,13.32,0.02,215.2
2020-05-20T04:22:03,42.805,6.029,-0.021,0.007,-0.065,105.0,107.0,103.0,13.4,1505.3,326.9,-0.7,1.8,2470.306,13.32,0.022,288.4
2020-05-20T04:25:03,42.805,6.029,-0.035,0.03,-0.046,104.0,107.0,102.0,13.3,1505.3,327.8,-0.7,1.8,2470.338,13.33,0.046,310.6
2020-05-20T04:28:03,42.805,6.029,-0.024,0.022,-0.036,104.0,108.0,101.0,13.4,1505.3,326.8,-0.7,1.8,2470.355,13.33,0.032,312.5
2020-05-20T04:31:03,42.805,6.029,0.009,0.002,-0.055,105.0,106.0,102.0,13.4,1505.3,327.6,-0.7,1.8,2470.336,13.33,0.009,77.5
2020-05-20T04:34:03,42.805,6.029,-0.014,0.015,-0.035,104.0,107.0,102.0,13.3,1505.3,326.4,-0.7,1.9,2470.351,13.33,0.02,317.0
2020-05-20T04:37:03,42.805,6.029,0.017,0.015,-0.042,104.0,106.0,102.0,13.4,1505.3,328.5,-0.7,1.8,2470.343,13.33,0.022,48.6
2020-05-20T04:40:03,42.805,6.029,0.02,0.015,0.008,105.0,106.0,103.0,13.4,1505.3,326.7,-0.7,1.8,2470.334,13.33,0.025,53.1
2020-05-20T04:43:03,42.805,6.029,0.031,0.025,0.001,105.0,107.0,103.0,13.3,1505.3,324.5,-0.7,1.8,2470.385,13.33,0.039,51.1
2020-05-20T04:46:03,42.805,6.029,0.024,0.014,-0.014,105.0,107.0,102.0,13.4,1505.3,325.6,-0.7,1.9,2470.342,13.33,0.027,59.7
2020-05-20T04:49:03,42.805,6.029,0.006,0.0,-0.045,104.0,106.0,103.0,13.4,1505.3,324.2,-0.7,1.8,2470.335,13.33,0.006,90.0
2020-05-20T04:52:03,42.805,6.029,0.003,0.017,-0.009,104.0,108.0,103.0,13.4,1505.3,324.6,-0.7,1.8,2470.329,13.33,0.017,10.0
2020-05-20T04:55:03,42.805,6.029,0.028,0.008,-0.024,106.0,107.0,101.0,13.4,1505.3,324.7,-0.7,1.8,2470.303,13.33,0.029,74.1
2020-05-20T04:58:03,42.805,6.029,0.009,0.011,0.006,107.0,107.0,102.0,13.4,1505.3,326.4,-0.7,1.8,2470.358,13.33,0.014,39.3
2020-05-20T05:04:03,42.805,6.029,0.014,0.007,-0.012,104.0,106.0,101.0,13.4,1505.3,323.4,-0.7,1.8,2470.395,13.31,0.015,63.4
2020-05-20T05:07:03,42.805,6.029,0.016,0.025,-0.01,104.0,107.0,105.0,13.3,1505.3,325.0,-0.7,1.8,2470.389,13.32,0.029,32.6
2020-05-20T05:10:03,42.805,6.029,0.03,-0.005,-0.028,104.0,106.0,103.0,13.4,1505.3,327.6,-0.7,1.8,2470.382,13.32,0.03,99.5
2020-05-20T05:13:03,42.805,6.029,0.026,0.022,-0.002,103.0,107.0,102.0,13.4,1505.3,327.0,-0.7,1.8,2470.352,13.33,0.034,49.8
2020-05-20T05:16:03,42.805,6.029,0.0,0.019,-0.031,103.0,107.0,101.0,13.3,1505.3,326.3,-0.7,1.8,2470.347,13.33,0.019,0.0
2020-05-20T05:19:03,42.805,6.029,0.012,0.009,-0.001,104.0,105.0,101.0,13.4,1505.3,326.4,-0.7,1.8,2470.352,13.33,0.015,53.1
2020-05-20T05:25:03,42.805,6.029,0.03,0.013,0.023,103.0,106.0,101.0,13.3,1505.3,326.3,-0.8,1.8,2470.371,13.31,0.032,66.6
2020-05-20T05:28:03,42.805,6.029,0.041,0.002,-0.019,104.0,107.0,101.0,13.4,1505.3,326.5,-0.7,1.9,2470.391,13.32,0.041,87.2
2020-05-20T05:31:03,42.805,6.029,0.027,0.019,-0.002,104.0,108.0,101.0,13.4,1505.3,326.0,-0.7,1.8,2470.406,13.32,0.033,54.9
2020-05-20T05:34:03,42.805,6.029,0.026,0.008,-0.027,103.0,107.0,103.0,13.3,1505.3,325.7,-0.7,1.9,2470.404,13.32,0.027,72.9
2020-05-20T05:37:03,42.805,6.029,0.034,0.02,-0.002,104.0,108.0,101.0,13.4,1505.3,324.0,-0.7,1.8,2470.39,13.33,0.039,59.5
2020-05-20T05:40:03,42.805,6.029,0.059,0.016,0.014,104.0,108.0,100.0,13.4,1505.3,323.0,-0.7,1.8,2470.382,13.33,0.061,74.8
2020-05-20T05:43:03,42.805,6.029,0.065,0.014,0.03,105.0,107.0,102.0,13.4,1505.3,324.7,-0.7,1.8,2470.387,13.33,0.066,77.8
2020-05-20T05:46:03,42.805,6.029,0.069,0.029,0.039,103.0,108.0,102.0,13.4,1505.3,327.0,-0.7,1.8,2470.362,13.33,0.074,67.2
2020-05-20T05:49:03,42.805,6.029,0.034,0.019,0.036,105.0,108.0,101.0,13.3,1505.3,326.5,-0.7,1.8,2470.351,13.33,0.038,60.8
2020-05-20T05:52:03,42.805,6.029,0.043,0.029,0.032,106.0,107.0,101.0,13.3,1505.3,326.6,-0.7,1.8,2470.365,13.33,0.051,56.0
2020-05-20T05:55:03,42.805,6.029,0.034,0.019,0.004,105.0,107.0,102.0,13.4,1505.3,326.0,-0.7,1.8,2470.361,13.33,0.038,60.8
2020-05-20T05:58:03,42.805,6.029,0.006,0.032,-0.003,104.0,107.0,104.0,13.4,1505.3,326.8,-0.7,1.9,2470.361,13.33,0.032,10.6
2020-05-20T06:04:03,42.805,6.029,0.017,0.01,-0.008,104.0,108.0,101.0,13.4,1505.3,326.7,-0.7,1.8,2470.407,13.31,0.019,59.5
2020-05-20T06:07:03,42.805,6.029,0.001,0.025,-0.022,104.0,110.0,101.0,13.4,1505.3,326.4,-0.8,1.8,2470.385,13.31,0.025,2.3
2020-05-20T06:10:03,42.805,6.029,0.012,0.017,-0.043,105.0,107.0,102.0,13.4,1505.3,326.8,-0.7,1.8,2470.352,13.32,0.02,35.2
2020-05-20T06:13:03,42.805,6.029,0.013,0.015,0.02,104.0,107.0,103.0,13.4,1505.3,324.1,-0.7,1.9,2470.392,13.32,0.019,40.9
2020-05-20T06:16:03,42.805,6.029,0.033,0.023,-0.01,105.0,107.0,102.0,13.4,1505.3,322.7,-0.7,1.8,2470.375,13.32,0.04,55.1
2020-05-20T06:19:03,42.805,6.029,0.018,0.023,-0.013,104.0,107.0,103.0,13.4,1505.3,323.4,-0.7,1.8,2470.396,13.33,0.029,38.0
2020-05-20T06:22:03,42.805,6.029,0.021,0.012,-0.048,104.0,108.0,102.0,13.4,1505.3,326.4,-0.7,1.8,2470.388,13.33,0.024,60.3
2020-05-20T06:25:03,42.805,6.029,0.034,0.005,0.008,104.0,108.0,102.0,13.4,1505.3,325.1,-0.7,1.9,2470.364,13.33,0.034,81.6
2020-05-20T06:28:03,42.805,6.029,0.019,0.012,-0.039,105.0,108.0,100.0,13.3,1505.3,323.6,-0.7,1.8,2470.336,13.33,0.022,57.7
2020-05-20T06:31:03,42.805,6.029,0.042,0.027,0.001,105.0,108.0,101.0,13.4,1505.3,327.5,-0.7,1.8,2470.338,13.33,0.049,57.3
2020-05-20T06:34:03,42.805,6.029,0.033,0.013,0.021,103.0,107.0,102.0,13.3,1505.3,325.5,-0.7,1.9,2470.391,13.33,0.035,68.5
2020-05-20T06:37:03,42.805,6.029,0.024,0.034,0.004,104.0,107.0,101.0,13.4,1505.3,325.4,-0.7,1.8,2470.381,13.33,0.041,35.2
2020-05-20T06:40:03,42.805,6.029,0.057,0.027,0.012,104.0,109.0,102.0,13.4,1505.3,324.0,-0.7,1.8,2470.359,13.33,0.063,64.7
2020-05-20T06:43:03,42.805,6.029,0.06,0.029,-0.009,104.0,108.0,103.0,13.4,1505.3,327.1,-0.7,1.8,2470.36,13.33,0.066,64.2
2020-05-20T06:46:03,42.805,6.029,0.027,0.006,0.01,106.0,108.0,102.0,13.4,1505.3,325.4,-0.7,1.8,2470.295,13.33,0.027,77.5
2020-05-20T06:49:03,42.805,6.029,0.038,0.03,0.007,104.0,108.0,102.0,13.3,1505.3,325.7,-0.7,1.8,2470.355,13.33,0.048,51.7
2020-05-20T06:52:03,42.805,6.029,0.066,0.0,0.032,105.0,109.0,101.0,13.4,1505.3,323.3,-0.7,1.8,2470.351,13.33,0.065,90.0
2020-05-20T06:55:03,42.805,6.029,0.056,0.0,0.019,103.0,107.0,102.0,13.4,1505.3,324.8,-0.7,1.8,2470.358,13.33,0.056,90.0
2020-05-20T06:58:03,42.805,6.029,0.028,0.008,-0.019,105.0,110.0,102.0,13.4,1505.3,326.8,-0.7,1.8,2470.333,13.33,0.029,74.1
2020-05-20T07:04:03,42.805,6.029,0.034,0.011,-0.027,104.0,108.0,103.0,13.4,1505.3,324.3,-0.7,1.8,2470.403,13.31,0.035,72.1
2020-05-20T07:07:03,42.805,6.029,0.027,0.049,0.015,104.0,107.0,102.0,13.4,1505.3,326.1,-0.7,1.8,2470.387,13.31,0.055,28.9
2020-05-20T07:10:03,42.805,6.029,0.041,0.026,0.041,104.0,107.0,101.0,13.3,1505.3,327.1,-0.7,1.9,2470.373,13.32,0.048,57.6
2020-05-20T07:13:03,42.805,6.029,0.063,0.03,0.042,103.0,108.0,101.0,13.3,1505.3,325.2,-0.7,1.8,2470.371,13.32,0.069,64.5
2020-05-20T07:16:03,42.805,6.029,0.053,0.012,-0.005,104.0,107.0,102.0,13.4,1505.3,327.8,-0.7,1.8,2470.33,13.32,0.054,77.2
2020-05-20T07:19:03,42.805,6.029,0.047,0.02,-0.004,104.0,106.0,103.0,13.3,1505.3,324.2,-0.7,1.8,2470.364,13.32,0.051,67.0
2020-05-20T07:22:03,42.805,6.029,0.025,0.012,0.004,104.0,107.0,102.0,13.4,1505.3,324.6,-0.7,1.8,2470.383,13.32,0.027,64.4
2020-05-20T07:25:03,42.805,6.029,0.047,-0.006,0.004,104.0,107.0,101.0,13.4,1505.3,327.9,-0.7,1.9,2470.344,13.32,0.047,97.3
2020-05-20T07:28:03,42.805,6.029,0.024,0.004,0.003,103.0,109.0,102.0,13.4,1505.3,323.5,-0.7,1.8,2470.338,13.33,0.024,80.5
2020-05-20T07:31:03,42.805,6.029,0.02,0.005,-0.008,105.0,107.0,102.0,13.3,1505.3,325.4,-0.7,1.9,2470.358,13.33,0.02,76.0
2020-05-20T07:34:03,42.805,6.029,0.041,0.008,-0.003,106.0,108.0,102.0,13.3,1505.3,326.9,-0.7,1.8,2470.318,13.33,0.041,79.0
2020-05-20T07:37:03,42.805,6.029,0.063,0.027,0.038,103.0,108.0,102.0,13.4,1505.3,326.3,-0.7,1.8,2470.319,13.33,0.068,66.8
2020-05-20T07:40:03,42.805,6.029,0.055,0.004,0.012,105.0,107.0,101.0,13.3,1505.3,327.6,-0.7,1.8,2470.33,13.33,0.055,85.8
2020-05-20T07:43:03,42.805,6.029,0.023,0.005,-0.012,105.0,109.0,101.0,13.4,1505.3,326.6,-0.7,1.8,2470.36,13.33,0.023,77.7
2020-05-20T07:46:03,42.805,6.029,0.025,0.002,0.003,104.0,107.0,101.0,13.4,1505.3,327.4,-0.7,1.8,2470.326,13.33,0.025,85.4
2020-05-20T07:49:03,42.805,6.029,0.016,0.014,0.005,105.0,107.0,102.0,13.3,1505.3,325.0,-0.7,1.8,2470.328,13.33,0.021,48.8
2020-05-20T07:52:03,42.805,6.029,0.05,0.02,0.03,103.0,106.0,102.0,13.4,1505.3,326.2,-0.7,1.8,2470.342,13.33,0.053,68.2
2020-05-20T07:55:03,42.805,6.029,0.042,0.016,-0.031,105.0,106.0,102.0,13.3,1505.3,326.3,-0.7,1.8,2470.311,13.33,0.044,69.1
2020-05-20T07:58:03,42.805,6.029,0.057,-0.019,-0.009,105.0,108.0,101.0,13.4,1505.3,327.8,-0.7,1.8,2470.346,13.33,0.06,108.4
2020-05-20T08:04:03,42.805,6.029,0.025,0.006,0.02,105.0,107.0,102.0,13.4,1505.3,325.3,-0.7,1.8,2470.395,13.31,0.025,76.5
2020-05-20T08:07:03,42.805,6.029,0.036,0.013,0.008,105.0,107.0,102.0,13.4,1505.3,326.7,-0.7,1.9,2470.34,13.31,0.038,70.1
2020-05-20T08:10:03,42.805,6.029,0.056,-0.017,0.017,104.0,107.0,102.0,13.4,1505.3,326.0,-0.7,1.8,2470.35,13.32,0.058,106.9
2020-05-20T08:13:03,42.805,6.029,-0.015,0.011,-0.037,105.0,109.0,102.0,13.4,1505.3,326.3,-0.7,1.8,2470.292,13.32,0.018,306.3
2020-05-20T08:19:03,42.805,6.029,-0.002,0.007,-0.052,104.0,108.0,102.0,13.4,1505.3,324.5,-0.7,1.8,2470.389,13.31,0.007,344.1
2020-05-20T08:22:03,42.805,6.029,0.021,0.013,-0.035,105.0,108.0,100.0,13.4,1505.3,327.2,-0.7,1.8,2470.349,13.31,0.024,58.2
2020-05-20T08:25:03,42.805,6.029,0.017,0.006,-0.017,105.0,107.0,101.0,13.4,1505.3,326.8,-0.7,1.9,2470.355,13.32,0.018,70.6
2020-05-20T08:28:03,42.805,6.029,-0.009,-0.005,-0.046,103.0,107.0,102.0,13.4,1505.3,328.0,-0.7,1.8,2470.301,13.32,0.01,240.9
2020-05-20T08:31:03,42.805,6.029,-0.009,0.012,-0.033,104.0,110.0,102.0,13.3,1505.3,323.2,-0.7,1.8,2470.32,13.32,0.015,323.1
2020-05-20T08:34:03,42.805,6.029,0.014,-0.014,-0.017,104.0,107.0,101.0,13.4,1505.3,327.0,-0.7,1.8,2470.295,13.33,0.019,135.0
2020-05-20T08:37:03,42.805,6.029,-0.005,0.021,-0.009,103.0,108.0,104.0,13.4,1505.3,325.7,-0.7,1.8,2470.297,13.33,0.021,346.6
2020-05-20T08:40:03,42.805,6.029,0.035,0.018,-0.03,104.0,107.0,101.0,13.4,1505.3,325.1,-0.7,1.8,2470.298,13.33,0.039,62.8
2020-05-20T08:43:03,42.805,6.029,0.024,-0.002,-0.035,105.0,107.0,101.0,13.3,1505.3,324.6,-0.7,1.8,2470.287,13.33,0.024,94.8
2020-05-20T08:46:03,42.805,6.029,0.002,0.011,-0.02,104.0,107.0,102.0,13.3,1505.3,323.9,-0.7,1.8,2470.307,13.33,0.011,10.3
2020-05-20T08:49:03,42.805,6.029,0.004,0.0,-0.034,104.0,107.0,103.0,13.3,1505.3,324.5,-0.7,1.8,2470.288,13.33,0.004,90.0
2020-05-20T08:52:03,42.805,6.029,0.009,0.017,-0.032,104.0,109.0,101.0,13.4,1505.3,323.0,-0.7,1.8,2470.304,13.33,0.019,27.9
2020-05-20T08:55:03,42.805,6.029,0.034,0.004,-0.038,103.0,109.0,101.0,13.3,1505.3,324.7,-0.7,1.9,2470.317,13.33,0.034,83.3
2020-05-20T08:58:03,42.805,6.029,0.029,0.021,-0.018,104.0,107.0,102.0,13.3,1505.3,323.5,-0.7,1.8,2470.266,13.33,0.035,54.1
2020-05-20T09:04:03,42.805,6.029,0.022,0.023,-0.006,104.0,106.0,102.0,13.4,1505.3,326.0,-0.8,1.8,2470.322,13.31,0.031,43.7
2020-05-20T09:07:03,42.805,6.029,-0.007,-0.007,-0.038,104.0,108.0,102.0,13.4,1505.3,325.7,-0.7,1.8,2470.264,13.31,0.009,225.0
2020-05-20T09:10:03,42.805,6.029,0.053,0.018,0.042,104.0,107.0,103.0,13.4,1505.3,326.1,-0.7,1.8,2470.293,13.32,0.055,71.2
2020-05-20T09:13:03,42.805,6.029,-0.008,-0.004,-0.044,104.0,109.0,102.0,13.4,1505.3,326.1,-0.8,1.8,2470.251,13.32,0.008,243.4
2020-05-20T09:16:03,42.805,6.029,0.028,0.004,-0.001,105.0,107.0,101.0,13.4,1505.3,327.1,-0.7,1.8,2470.256,13.32,0.028,81.9
2020-05-20T09:19:03,42.805,6.029,0.049,0.02,0.02,105.0,108.0,102.0,13.4,1505.3,325.6,-0.7,1.9,2470.31,13.33,0.052,67.8
2020-05-20T09:22:03,42.805,6.029,0.04,0.017,-0.036,105.0,107.0,102.0,13.4,1505.3,325.4,-0.7,1.8,2470.25,13.33,0.043,67.0
2020-05-20T09:25:03,42.805,6.029,0.043,0.025,-0.022,105.0,107.0,103.0,13.3,1505.3,324.1,-0.7,1.9,2470.249,13.33,0.049,59.8
2020-05-20T09:28:03,42.805,6.029,0.019,-0.025,-0.054,104.0,108.0,101.0,13.3,1505.3,324.6,-0.7,1.8,2470.266,13.33,0.031,142.8
2020-05-20T09:31:03,42.805,6.029,0.026,-0.003,0.003,105.0,106.0,101.0,13.3,1505.3,326.8,-0.7,1.8,2470.275,13.33,0.026,96.6
2020-05-20T09:34:03,42.805,6.029,0.016,0.004,-0.042,104.0,107.0,103.0,13.4,1505.3,326.7,-0.7,1.8,2470.255,13.33,0.016,76.0
2020-05-20T09:37:03,42.805,6.029,0.039,-0.003,0.008,104.0,106.0,102.0,13.4,1505.3,324.7,-0.7,1.8,2470.283,13.33,0.039,94.4
2020-05-20T09:40:03,42.805,6.029,0.065,0.007,0.003,103.0,109.0,102.0,13.4,1505.3,324.8,-0.7,1.8,2470.247,13.33,0.065,83.9
2020-05-20T09:43:03,42.805,6.029,0.051,0.022,0.011,104.0,108.0,102.0,13.4,1505.3,324.2,-0.7,1.8,2470.238,13.33,0.055,66.7
2020-05-20T09:46:03,42.805,6.029,0.056,0.031,0.016,104.0,107.0,102.0,13.3,1505.3,324.6,-0.7,1.8,2470.254,13.33,0.064,61.0
2020-05-20T09:49:03,42.805,6.029,0.048,0.025,0.02,105.0,106.0,102.0,13.4,1505.3,324.6,-0.7,1.8,2470.23,13.33,0.054,62.5
2020-05-20T09:52:03,42.805,6.029,0.052,0.008,-0.005,104.0,108.0,101.0,13.4,1505.3,325.3,-0.7,1.8,2470.252,13.33,0.052,81.3
2020-05-20T09:55:03,42.805,6.029,0.044,0.024,-0.002,105.0,106.0,103.0,13.4,1505.3,322.8,-0.7,1.8,2470.189,13.33,0.05,61.4
2020-05-20T09:58:03,42.805,6.029,0.069,0.019,0.01,104.0,108.0,102.0,13.4,1505.3,327.2,-0.7,1.8,2470.268,13.33,0.071,74.6
2020-05-20T10:04:03,42.805,6.029,0.046,0.03,0.031,104.0,108.0,102.0,13.3,1505.3,324.9,-0.7,1.8,2470.261,13.31,0.054,56.9
2020-05-20T10:07:03,42.805,6.029,0.049,-0.002,0.0,104.0,108.0,101.0,13.3,1505.3,325.2,-0.7,1.9,2470.266,13.31,0.049,92.3
2020-05-20T10:10:03,42.805,6.029,0.033,0.004,-0.035,104.0,107.0,101.0,13.4,1505.3,327.0,-0.7,1.8,2470.28,13.32,0.033,83.1
2020-05-20T10:13:03,42.805,6.029,0.047,-0.007,-0.037,103.0,107.0,102.0,13.4,1505.3,324.3,-0.7,1.8,2470.247,13.32,0.047,98.5
2020-05-20T10:16:03,42.805,6.029,0.03,-0.001,-0.021,105.0,107.0,101.0,13.4,1505.3,327.3,-0.7,1.8,2470.251,13.32,0.03,91.9
2020-05-20T10:19:03,42.805,6.029,0.034,0.007,0.003,103.0,107.0,101.0,13.4,1505.3,324.8,-0.7,1.8,2470.261,13.32,0.034,78.4
2020-05-20T10:22:03,42.805,6.029,0.046,0.011,0.013,103.0,106.0,103.0,13.3,1505.3,325.9,-0.7,1.8,2470.207,13.32,0.047,76.6
2020-05-20T10:25:03,42.805,6.029,0.018,0.011,-0.04,104.0,108.0,103.0,13.4,1505.3,323.7,-0.7,1.8,2470.228,13.33,0.021,58.6
2020-05-20T10:28:03,42.805,6.029,0.012,-0.003,-0.021,104.0,107.0,102.0,13.4,1505.3,327.7,-0.7,1.8,2470.221,13.33,0.012,104.0
2020-05-20T10:31:03,42.805,6.029,0.047,0.019,-0.009,105.0,107.0,102.0,13.4,1505.3,327.0,-0.7,1.8,2470.151,13.33,0.05,68.0
2020-05-20T10:34:03,42.805,6.029,0.042,0.01,0.016,104.0,108.0,101.0,13.4,1505.3,323.5,-0.7,1.8,2470.24,13.33,0.043,76.6
2020-05-20T10:37:03,42.805,6.029,0.067,0.006,-0.011,104.0,109.0,100.0,13.3,1505.3,326.8,-0.7,1.8,2470.197,13.33,0.067,84.9
2020-05-20T10:40:03,42.805,6.029,0.013,0.019,-0.038,104.0,107.0,101.0,13.4,1505.3,324.6,-0.7,1.8,2470.226,13.32,0.023,34.4
2020-05-20T10:43:03,42.805,6.029,0.062,0.006,0.03,104.0,107.0,102.0,13.3,1505.3,328.0,-0.7,1.8,2470.21,13.32,0.062,84.5
2020-05-20T10:46:03,42.805,6.029,0.044,0.041,0.04,102.0,107.0,101.0,13.4,1505.3,326.4,-0.7,1.8,2470.243,13.33,0.06,47.0
2020-05-20T10:49:03,42.805,6.029,0.057,0.011,-0.02,104.0,106.0,101.0,13.4,1505.3,325.8,-0.7,1.8,2470.182,13.33,0.058,79.1